Regional Weather Roundup
Issued by NWS Green Bay, WI

Home | Current Version | Previous Version | Graphics & Text | Print | Product List | Glossary Off
Versions: 1 2 3 4 5 6 7 8 9 10 11 12 13 14 15 16 17 18 19 20 21 22 23 24 25 26 27 28 29 30 31 32 33 34 35 36 37 38 39 40 41 42 43 44 45 46 47 48 49 50

000
ASUS43 KGRB 212011
RWRGRB

NORTH-CENTRAL AND NORTHEAST WISCONSIN REGIONAL WEATHER ROUNDUP
NATIONAL WEATHER SERVICE GREEN BAY WI
300 PM CDT MON AUG 21 2017

WIZ005-009-010>012-018-019-212100-
NORTH CENTRAL WISCONSIN

CITY           SKY/WX    TMP DP  RH WIND       PRES   REMARKS
IRONWOOD       CLOUDY    70  60  70 E6        29.96F
MANITOWISH WTR CLOUDY    75  60  59 CALM      29.97F
ARBOR VITAE    MOSUNNY   77  66  68 SW3       29.97F
EAGLE RIVER    MOSUNNY   76  62  59 S5        29.97F
LAND O LAKES   CLOUDY    77  58  52 SW3       29.99F
RHINELANDER    PTSUNNY   76  66  71 S5        29.99F
PHILLIPS       CLOUDY    76  66  70 S6        29.96F
ANTIGO         CLOUDY    75  68  77 S6        29.98F
TOMAHAWK         N/A     76  66  70 S3        29.97F
MERRILL        MOSUNNY   79  70  73 SE3       29.96F
$$

WIZ013-073-212100-
NORTHEAST WISCONSIN

CITY           SKY/WX    TMP DP  RH WIND       PRES   REMARKS
IRON MOUNTAIN  MOSUNNY   79  63  57 S7        29.96F
MARINETTE      MOSUNNY   77  67  71 SE6       29.95F
OCONTO         MOSUNNY   80  70  70 SE7       29.93F
$$

WIZ017-030-035>037-045-212100-
CENTRAL WISCONSIN

CITY           SKY/WX    TMP DP  RH WIND       PRES   REMARKS
MEDFORD        RAIN      73  70  91 E5        29.95F
WAUSAU         LGT RAIN  73  67  81 E3        29.94F
MOSINEE        PTSUNNY   79  70  73 S9        29.96F
MARSHFIELD     PTSUNNY   76  65  68 S10       29.94F
WISC RAPIDS    CLOUDY    81  68  64 SW14      29.97F
STEVENS POINT  PTSUNNY   80  68  66 S9        29.96F
WAUPACA        MOSUNNY   81  70  69 S9        29.96F
SHAWANO        CLOUDY    83  70  64 S3        29.95S
CLINTONVILLE   CLOUDY    81  68  65 S7        29.95S
WAUTOMA        PTSUNNY   80  69  69 S9        29.96F
$$

WIZ038-039-048-051-212100-
FOX VALLEY

CITY           SKY/WX    TMP DP  RH WIND       PRES   REMARKS
NWS GREEN BAY  PTSUNNY   79  72  79 S8        29.95S
APPLETON       PTSUNNY   79  63  57 S12       29.96S
OSHKOSH        PTSUNNY   79  69  71 S12       29.96S
FOND DU LAC    CLOUDY    78  66  66 S8        29.96F
$$

WIZ022-050-052-212100-
EAST CENTRAL WISCONSIN

CITY           SKY/WX    TMP DP  RH WIND       PRES   REMARKS
EPHRAIM        FAIR      76  69  79 S6        29.95F
WASHINGTON ISL FAIR      75  68  78 S7        29.96F
STURGEON BAY   MOSUNNY   78  72  81 S7        29.95F
MANITOWOC        N/A    N/A N/A N/A MISG        N/A
SHEBOYGAN      CLOUDY    78  71  79 SE7       29.97F
$$

LMZ563-521-522-541>543-212100-
LAKESHORE

STATION/POSITION TIME  TEMP    WIND        PRES    VSBY  WAVE
                       AIR SEA DIR/SP/G                  HT/PER
                 (UTC) (F)     (DEG/KT/KT) (MB)    (MI)  (FT/S)
SHEBOYGAN LKSHOR 2000   72     140/ 10/ 11 1014.1F
KEWAUNEE LKSHORE 1942   70     180/  6/  7 1013.6F
NORTHPORT PIER   1940   71     140/  7/  9 1014.6F
N MID LAKE BUOY  1950   69 70  160/  8/  8 1015.2F         1
S GREEN BAY BUOY 2000   74 74   90/  4/  4 1013.5
SISTER BAY LKSHO 1918   80     190/  6/  9   N/A
MENOMINEE LKSHOR 1942   73      70/  5/  6 1013.9F
$$




USA.gov is the U.S. government's official web portal to all federal, state and local government web resources and services.